Preview of NWS' New Version of Forecast
This preview is not operational and should not be used for support decisions.

Regional Weather Roundup (RWR)

Issued by National Weather Service (NWS)

                            
000
ASUS42 KTBW 241915
RWRFL 
FLORIDA REGIONAL WEATHER ROUNDUP
NATIONAL WEATHER SERVICE TAMPA BAY RUSKIN FL
300 PM EDT MON JUN 24 2019

NOTE: "FAIR" INDICATES FEW OR NO CLOUDS BELOW 12,000 FEET WITH NO
SIGNIFICANT WEATHER AND/OR OBSTRUCTIONS TO VISIBILITY.

FLZ001>010-012>015-112-114-115-242000-
PANHANDLE FLORIDA
  
CITY           SKY/WX    TMP DP  RH WIND       PRES   REMARKS
PENSACOLA      FAIR      91  73  55 SW16      30.00F HX  99           
PENSACOLA NAS  PTSUNNY   86  74  67 SW12      29.99F                  
MILTON NAS     PTSUNNY   90  73  57 SW15      30.00S HX  98           
CRESTVIEW      FAIR      87  71  58 SW9       30.01S                  
DUKE FIELD     FAIR      82  74  77 W6        30.00R                  
VALPARAISO     CLOUDY    89  76  65 SW15      30.00F HX 101           
MARY ESTHER    PTSUNNY   90  79  70 SW13G21   29.99S HX 105           
TRI COUNTY     PTSUNNY   89  78  70 W6        29.99F HX 103           
PANAMA CITY    PTSUNNY   89  77  67 SW15G21   30.00F HX 101           
TYNDALL AFB    MOSUNNY   89  79  71 SW15      30.01F HX 104           
APALACHICOLA   PTSUNNY   90  76  63 W14       30.02F HX 101           

STATION/POSITION SKY/WX   TEMP    WIND        PRES    WAVE   SWELL
                          AIR SEA DIR/SP/G            HT/PER HT/PER
                          (F)     (DEG/KT/KT) (MB)    (FT/S) (FT/S)
30.1N   87.6W                                   N/A     4/ 6
29.2N   88.2W                     230/ 10/ 12 1017.2F   3/ 6   2/ 6
PANAMA CITY BEAC           85 86  240/ 13/ 16 1016.9F
TOWER C          NOT AVBL

$$
FLZ011-016>038-118-127-128-134-139-239-242000-
NORTH FLORIDA
  
CITY           SKY/WX    TMP DP  RH WIND       PRES   REMARKS
MARIANNA       FAIR      95  73  48 SW15G21   29.97F HX 104           
TALLAHASSEE    FAIR      95  73  48 W15       30.00F HX 104           
PERRY          FAIR      91  76  59 W9        30.02F HX 103           
LIVE OAK       MOSUNNY   93  72  49 VRB6G13   30.00F HX 100           
CROSS CITY     FAIR      92  73  54 W10       30.03S HX 100           
LAKE CITY      FAIR      91  72  52 W8G18     30.01F HX  98           
GAINESVILLE    FAIR      93  71  48 W13       30.04F HX 100           
PALATKA        FAIR      93  73  52 W9        30.01F HX 102           
MAYPORT NAS    FAIR      89  77  67 SE13      29.99F HX 101           
JACKSONVILLE   FAIR      97  70  41 SW10      29.97F HX 103           
JAX NAS        FAIR      98  66  34 W9G18     29.99F HX 101           
JAX CECIL      MOSUNNY  100  66  32 W12       29.99F HX 104           
FERNANDINA BEA FAIR      88  78  70 SE13      29.99S HX 101           
ST AUGUSTINE   FAIR      88  79  74 SE12      30.01F HX 103           
PALM COAST     MOSUNNY   93  70  46 SW3       30.00F HX  99           

STATION/POSITION SKY/WX   TEMP    WIND        PRES    WAVE   SWELL
                          AIR SEA DIR/SP/G            HT/PER HT/PER
                          (F)     (DEG/KT/KT) (MB)    (FT/S) (FT/S)
SHELL POINT      NOT AVBL
KEATON BEACH               85     240/ 10/ 11 1017.1F
CEDAR KEY                  86     250/  4/  8 1017.5F
FERNANDINA                 93 84  120/  6/  9 1016.2F
30.7N   81.3W                 84                N/A     1/10
MAYPORT                    87 81  120/  6/ 12 1016.2F
31.4N   80.9W              83 84  190/  8/ 10 1015.3F   1/ 9   2/ 9
ST AUGUSTINE               82 82  110/  7/  8 1016.3F

$$
FLZ040-043>046-052-053-057-058-063-144-242000-
INTERIOR CENTRAL FLORIDA
  
CITY           SKY/WX    TMP DP  RH WIND       PRES   REMARKS
OCALA          FAIR      94  71  47 SW9G16    30.03F HX 101           
LEESBURG       FAIR      92  71  50 W9        30.03F HX  98           
SANFORD        FAIR      95  67  39 NW9       30.01F HX  99           
ORLANDO EXEC   FAIR      96  66  37 NW7       30.01F HX  99           
ORLANDO INTL   FAIR      95  66  38 VRB7      30.01F HX  98           
KISSIMMEE      FAIR      94  70  45 W10       30.03F HX 100           
WINTER HAVEN   FAIR      95  70  44 W7        30.04F HX 101           
LAKELAND       MOSUNNY   91  70  49 W5        30.04F HX  97           
BARTOW         MOSUNNY   93  72  49 NW6       30.02F HX 100           
SEBRING        FAIR      95  69  41 NW7       30.02F HX 100           
OKEECHOBEE     FAIR      93  72  49 W8        30.01F HX 100           

$$
FLZ041-047-054-059-064-141-147-242000-
EAST CENTRAL FLORIDA
  
CITY           SKY/WX    TMP DP  RH WIND       PRES   REMARKS
ORMOND BEACH   SUNNY     90  77  66 E8        30.00F HX 102           
DAYTONA BEACH  FAIR      90  80  72 E9        30.01F HX 107           
DELAND         PTSUNNY   93  72  49 SW6       30.00F HX 100           
NEW SMYRNA BEA MOSUNNY   90  77  66 E8        30.02F HX 102           
JFK SPACE CTR  FAIR      93  68  44 CALM      30.00F HX  97           
TITUSVILLE     MOSUNNY   97  66  36 MISG      30.02F HX 100           
CAPE CANAVERAL DRIZZLE   89  20   8 E9        30.00F                  
PATRICK AFB    FAIR      87  81  83 E9        30.01F HX 103           
MELBOURNE      FAIR      93  77  59 E7        30.01F HX 107           
VERO BEACH     FAIR      91  77  63 E9        30.01F HX 104           
FT PIERCE      FAIR      91  77  63 E9        30.01F HX 104           
STUART         PTSUNNY   90  79  70 E12       30.03S HX 105           

STATION/POSITION SKY/WX   TEMP    WIND        PRES    WAVE   SWELL
                          AIR SEA DIR/SP/G            HT/PER HT/PER
                          (F)     (DEG/KT/KT) (MB)    (FT/S) (FT/S)
28.5N   80.2W              82      10/  6/  6 1016.4
28.9N   78.5W              84 84  290/ 12/ 14   N/A     2/ 9   2/ 9
TRIDENT PIER               85 74   70/  8/ 11 1017.9F
28.4N   80.5W                 80                N/A     1/ 9
27.5N   80.2W                 83                N/A     1/ 9

$$
FLZ050-056-061-142-242-148-248-149-249-151-251-155-255-
160-260-242000-
WEST CENTRAL FLORIDA
  
CITY           SKY/WX    TMP DP  RH WIND       PRES   REMARKS
CRYSTAL RIVER  FAIR     N/A N/A N/A SW6       30.04F                  
INVERNESS      FAIR      91  72  52 CALM      30.04S HX  98           
BROOKSVILLE    FAIR      93  73  52 W12       30.05S HX 102           
CLEARWATER AIR FAIR      86  72  62 W6        30.05S                  
ST PETE CLEARW NOT AVBL                                               
TAMPA INTL     FAIR      91  74  57 W9        30.04F HX 100           
PLANT CITY       N/A    N/A N/A N/A MISG        N/A                   
MACDILL AFB    PTSUNNY   91  74  57 S10       30.04F HX  99           
PETER O KNIGHT PTSUNNY   91  77  62 SW7       30.04F HX 105           
ST PETERSBURG  FAIR      88  73  61 W12       30.03F HX  95           
SARASOTA       FAIR      91  75  59 W9        30.03F HX 101           
VENICE         FAIR      91  77  62 NW9       30.05S HX 105           

STATION/POSITION SKY/WX   TEMP    WIND        PRES    WAVE   SWELL
                          AIR SEA DIR/SP/G            HT/PER HT/PER
                          (F)     (DEG/KT/KT) (MB)    (FT/S) (FT/S)
27.3N   84.2W                 89                N/A     1/10
CLEARWATER BEACH           85 89  240/  8/  9 1018.1R
MIDDLE TAMPA BAY           84     280/  5/  6 1017.8F
VENICE                     85 86  280/  7/  8 1017.4F

$$
FLZ066-069-070-075>078-162-262-165-265-242000-
SOUTHWEST FLORIDA AND KEYS
  
CITY           SKY/WX    TMP DP  RH WIND       PRES   REMARKS
PUNTA GORDA    FAIR      93  70  46 W10       30.04F HX  99           
FT MYERS       FAIR      93  73  52 W12       30.02F HX 102           
SOUTHWEST INTL PTSUNNY   91  74  57 SW12      30.02F HX 100           
NAPLES         FAIR      92  76  59 W8        30.03F HX 104           
IMMOKALEE      FAIR      97  72  44 NW5       29.99F HX 105           
MARATHON       CLOUDY    92  77  61 VRB3      30.03S HX 105           
KEY WEST NAS   FAIR      92  76  59 SE7       30.03F HX 104           
KEY WEST INTL  FAIR      87  76  69 S6        30.03F HX  97           

STATION/POSITION SKY/WX   TEMP    WIND        PRES    WAVE   SWELL
                          AIR SEA DIR/SP/G            HT/PER HT/PER
                          (F)     (DEG/KT/KT) (MB)    (FT/S) (FT/S)
NAPLES                     91 90              1017.2F
DRY TORTUGAS               85     110/  3/  5 1017.1F
SAND KEY                   85                 1017.2F
SOMBRERO KEY               86                 1016.5F

$$
FLZ067-068-071>074-168-172>174-242000-
SOUTHEAST FLORIDA 
  
CITY           SKY/WX    TMP DP  RH WIND       PRES   REMARKS
W PALM BEACH   FAIR      92  74  55 SE6       30.01F HX 101           
BOCA RATON     MOSUNNY   97  75  49 SE12      30.00F HX 109           
FT LAUDER-EXEC FAIR      90  72  55 NE3       30.01F THUNDER HX  97   
FT LAUDERDALE  PTSUNNY   87  74  64 E10       30.01F THUNDER HX  95   
POMPANO BEACH  FAIR      90  74  59 SE7       30.01F HX  99           
PEMBROKE PINES FAIR      94  72  48 N13       30.01F THUNDER HX 102   
OPA LOCKA      PTSUNNY   95  73  48 VRB6      30.00F HX 104           
MIAMI          PTSUNNY   96  69  41 VRB6      30.00F HX 102           
WEST KENDALL   FAIR      97  70  41 VRB5      30.01F HX 103           
HOMESTEAD      FAIR      93  77  59 SE7       30.00F HX 106           

STATION/POSITION SKY/WX   TEMP    WIND        PRES    WAVE   SWELL
                          AIR SEA DIR/SP/G            HT/PER HT/PER
                          (F)     (DEG/KT/KT) (MB)    (FT/S) (FT/S)
VIRGINIA KEY               88 90  120/  9/ 11 1016.3F
LAKE WORTH                 85 83  140/  6/  7 1017.7F
FOWEY ROCKS                87 85  130/  8/  8 1016.6F
SETTLEMENT POINT           85     260/  5/  6 1017.1F

$$